This is the latest recevied weather packets stored in our database for station/object IR3AS. If no packets are shown the sender has not sent any weather packets the latest 10 day(s).
| Time | Temp. | Humidity | Pressure | Rain* | Wind** | Luminosity | Snow |
|---|---|---|---|---|---|---|---|
| 1788070793 | 13.89° C | 81% | 863.4 hPa | 0 mm | - | - | - |
| 1788070493 | 12.78° C | 83% | 863.4 hPa | 0 mm | - | - | - |
| 1788070193 | 12.22° C | 84% | 863 hPa | 0 mm | - | - | - |
| 1788069893 | 11.67° C | 85% | 863.3 hPa | 0 mm | - | - | - |
| 1788069593 | 11.67° C | 85% | 863.1 hPa | 0 mm | - | - | - |
| 1788069294 | 11.67° C | 84% | 863.2 hPa | 0 mm | - | - | - |
| 1788068993 | 11.67° C | 84% | 863.1 hPa | 0 mm | - | - | - |
| 1788068693 | 12.22° C | 83% | 862.7 hPa | 0 mm | - | - | - |
| 1788068393 | 12.78° C | 82% | 862.7 hPa | 0 mm | - | - | - |
| 1788068093 | 12.78° C | 83% | 862.5 hPa | 0 mm | - | - | - |
| 1788067793 | 12.22° C | 83% | 862.7 hPa | 0 mm | - | - | - |
| 1788067493 | 11.67° C | 84% | 862.5 hPa | 0 mm | - | - | - |
| 1788067193 | 11.67° C | 85% | 862.7 hPa | 0 mm | - | - | - |
| 1788066893 | 11.11° C | 86% | 862.7 hPa | 0 mm | - | - | - |
| 1788066593 | 11.11° C | 86% | 862.9 hPa | 0 mm | - | - | - |
| 1788066293 | 10.56° C | 87% | 863 hPa | 0 mm | - | - | - |
| 1788065994 | 10.56° C | 87% | 863.6 hPa | 0 mm | - | - | - |
| 1788065693 | 10.56° C | 87% | 863.5 hPa | 0 mm | - | - | - |
| 1788065393 | 10° C | 87% | 863.7 hPa | 0 mm | - | - | - |
| 1788065093 | 10° C | 87% | 863.6 hPa | 0 mm | - | - | - |
| 1788064793 | 10° C | 86% | 863.8 hPa | 0 mm | - | - | - |
| 1788064493 | 10° C | 87% | 863.7 hPa | 0 mm | - | - | - |
| 1788064193 | 10° C | 86% | 863.8 hPa | 0 mm | - | - | - |
| 1788063894 | 10° C | 86% | 863.9 hPa | 0 mm | - | - | - |
| 1788063593 | 10° C | 86% | 863.9 hPa | 0 mm | - | - | - |
* Rain latest hour (hover to see other rain measurements)
** Current wind speed in m/s (hover to see current wind gust speed)